DECAYED

STARLINK-1737, 46586 (Decayed)

Orbit data source: Space-Track

STARLINK-1737, 46586 was a payload satellite owned by SpaceX/Seattle (US) in LEO that was launched on Tue, 06 Oct 2020 UTC via an FALCON 9 launch vehicle from the Air Force Eastern Test Range (AFETR). Payload-class satellites include a variety of spacecraft equipped with specific instruments for various scientific and technological missions. These include communications satellites like Starlink; space stations such as the ISS; scientific satellites like the Hubble; Earth observation satellites from companies like Planet Labs, Umbra, and HawkEye 360; GPS; miniature CubeSats for education and research; and military/defense satellites.

Not visible in the next 10 days
Identifier
46586, 2020-070BG
Orbit
Decayed
Country
Flag of USUS
Related business
Manufacturer
SpaceX/Seattle
Mission
Decayed Commercial Communications
Bus & Motor
STARLINK, Unknown motor
Mass
260 kg wet, ~248 kg dry
Launch date (UTC)
2020-10-06 (5 years ago)
Launch vehicle
FALCON 9
Launch site
Air Force Eastern Test Range (AFETR)
Object type
Payload
Rocket body
Debris
Shape & HBR
Box + 1 Pan, 10.1 m
Radar Cross Section
13.562 m², Large (>1 m²)

Expand to show TLE details & history
Last TLE update: 8 months ago

TLE from 8 months ago
0 STARLINK-1737
1 46586U 20070BG  25039.58360014  .18829729  12521-4  69243-3 0  9992
2 46586  53.0150  84.0668 0002227 354.2368  84.2607 16.44350735240642
Epoch: 2025-02-08T14:00Z
TLE epoch observation values (Epoch: 2025-02-08T14:00:23.052Z)
Latitude
51.67727°
Longitude
166.37132°
Altitude
160.243 km
Speed
7.817 km/s
True Right ascension
10h 21m 35s
True Declination
51° 29' 40"
Sunlit
Object was in full shadow at epoch
Visualization orbit readout
Latitude
Unknown
Longitude
Unknown
Altitude
Unknown
Speed
Unknown
Apparent Right ascension
Unknown
Apparent Declination
Unknown
Sunlit
N/A
Visualization observer readout
Local Sidereal Time
12:49:34
Azimuth
Unknown
Elevation
Unknown
Doppler factor
Unknown
Orbital elements
Apogee altitude
156.003 km
Perigee altitude
153.093 km
Semi-major axis
6,532.685 km
Eccentricity
0.00022
Inclination
53.015°
RAAN
84.0668°
Arg. of periapsis
354.2368°
True anomaly
84.28609°
Mean anomaly
84.2607°
Eccentric anomaly
84.2734°
Mean motion
4.1106 °/min
Orbital period
87.58 mins
BSTAR
0.00069243
Loading maneuver chart data...
Computing Atmospheric mass density...
Loading historical data...
Loading historical data...
Loading historical data...
Loading historical data...
Loading historical data...
Loading historical data...
Loading historical data...

Documentation

Showing up to 5 results
|